Home   Weather   Potsdam   Past weeks

Flag for Germany Past Weather in Potsdam, Brandenburg, Germany — Yesterday and Last 2 Weeks

Now
34 °F

Fog.


Feels Like: 34 °F
Forecast: 30 / 38 °F
Wind: No wind

Location: Berlin-Tegel

Current Time: Dec 6, 2016 at 11:07:06 pm

Latest Report: Dec 6, 2016 at 10:20 pm


Visibility: 0 mi

Pressure: 30.54 "Hg

Humidity: 100%

Dew Point: 34 °F

Location of PotsdamLocation

Past Weather in Potsdam — Graph

°F

Potsdam Temperature Yesterday

Maximum temperature yesterday: 30 °F (at 1:50 pm)
Minimum temperature yesterday: 23 °F (at 8:20 pm)
Average temperature yesterday: 27 °F

High & Low Weather Summary for the Past Weeks

 TemperatureHumidityPressure
High54 °F (Nov 22, 1:20 pm)100% (Nov 22, 11:50 pm)30.54 "Hg (Nov 22, 11:50 pm)
Low19 °F (Nov 29, 1:20 am)56% (Nov 28, 2:20 pm)29.74 "Hg (Nov 21, 9:20 pm)
Average36 °F89%30.19 "Hg
* Reported Nov 21 9:20 pm — Dec 6 9:50 pm, Potsdam, Weather by CustomWeather, © 2016

Note: Actual official high and low records may vary slightly from our data, if they occured in-between our weather recording intervals... More about our weather records

Advertising

Potsdam Weather History for the Previous 24 Hours

Scroll right to see more
 ConditionsComfort  
Time TempWeatherWind HumidityBarometerVisibility
9:50 pm
Tue, Dec 6
34 °FFog.1 mph100%30.54 "Hg1 mi
9:20 pm34 °FFog.2 mph100%30.54 "Hg1 mi
8:50 pm34 °FFog.5 mph100%30.54 "Hg1 mi
8:20 pm34 °FFog.5 mph100%30.54 "Hg1 mi
7:50 pm34 °FFog.3 mph100%30.54 "Hg2 mi
6:50 pm34 °FLow clouds.5 mph100%30.51 "Hg6 mi
6:20 pm34 °FLow clouds.5 mph100%30.51 "Hg6 mi
5:50 pm34 °FLow clouds.3 mph100%30.51 "Hg6 mi
5:20 pm34 °FPassing clouds.3 mph100%30.51 "Hg6 mi
4:50 pm34 °FPassing clouds.3 mph100%30.48 "Hg4 mi
4:20 pm34 °FPassing clouds.3 mph100%30.48 "Hg4 mi
3:50 pm34 °FBroken clouds.5 mph93%30.48 "Hg4 mi
3:20 pm34 °FPartly sunny.5 mph93%30.45 "Hg4 mi
2:50 pm34 °FPartly sunny.5 mph100%30.45 "Hg4 mi
2:20 pm34 °FPartly sunny.5 mph93%30.45 "Hg4 mi
1:50 pm34 °FPartly sunny.6 mph93%30.45 "Hg4 mi
1:20 pm34 °FDrizzle. Partly sunny.6 mph93%30.42 "Hg4 mi
12:50 pm34 °FDrizzle. Partly sunny.6 mph93%30.42 "Hg4 mi
12:20 pm34 °FPartly sunny.6 mph93%30.42 "Hg5 mi
11:50 am34 °FPartly sunny.6 mph93%30.42 "HgN/A
11:20 am34 °FPartly sunny.7 mph93%30.42 "HgN/A
10:50 am34 °FPartly sunny.7 mph93%30.42 "HgN/A
10:20 am34 °FPartly sunny.6 mph93%30.42 "HgN/A
9:50 am34 °FPartly sunny.5 mph93%30.39 "HgN/A
9:20 am32 °FLight rain. Partly sunny.5 mph100%30.39 "HgN/A
8:50 am32 °FPartly sunny.6 mph100%30.36 "HgN/A
8:20 am32 °FLight rain. Partly sunny.7 mph100%30.36 "HgN/A
7:50 am32 °FLight rain. Passing clouds.8 mph93%30.36 "HgN/A
7:20 am32 °FLight freezing rain. Passing clouds.9 mph93%30.33 "HgN/A
6:50 am32 °FLight freezing rain. Passing clouds.6 mph93%30.33 "HgN/A
6:20 am32 °FPassing clouds.8 mph93%30.33 "HgN/A
5:50 am32 °FLight freezing rain. Passing clouds.9 mph93%30.33 "HgN/A
5:20 am32 °FPassing clouds.9 mph93%30.33 "HgN/A
4:50 am32 °FPassing clouds.8 mph93%30.30 "HgN/A
4:20 am30 °FLight freezing rain. Passing clouds.7 mph100%30.30 "HgN/A
3:50 am30 °FLight freezing rain. Passing clouds.6 mph100%30.33 "Hg6 mi
3:20 am30 °FLight freezing rain. Passing clouds.7 mph100%30.33 "Hg6 mi
2:50 am30 °FPassing clouds.6 mph93%30.30 "HgN/A
2:20 am30 °FPassing clouds.5 mph93%30.30 "HgN/A
1:50 am30 °FPassing clouds.6 mph93%30.30 "HgN/A
1:20 am28 °FPassing clouds.5 mph100%30.30 "HgN/A
12:50 am28 °FPassing clouds.5 mph100%30.30 "HgN/A
12:20 am28 °FPassing clouds.5 mph93%30.30 "HgN/A
11:50 pm
Mon, Dec 5
27 °FPassing clouds.5 mph100%30.30 "HgN/A
11:20 pm27 °FPassing clouds.5 mph100%30.30 "HgN/A
Weather by CustomWeather, © 2016

See weather overviewHow to use our weather pages